Avian Flight Center Webcam (1 minute updates)

Looking East from Avian at mid-field (Taxiway E) towards Runway 20-2 (Click for full size image). Image will update automatically every minute.

Bremerton Airport Live Webcam

KPWT 172115Z AUTO 20024G40KT 4SM BKN011 OVC017 13/13 A2957 RMK AO1 P0006

Time-lapse movie of yesterday's webcam images

If you are unable to view the movie, download and install the DivX Codec here